Weather History for KHNB - February, 2013

Change the Weather History Date:

Saturday, February 2, 2013

  Actual Average (KEVV) Record (KEVV)
Temperature  
Mean Temperature 27 °F 34 °F  
Max Temperature 35 °F 43 °F 63 °F (1911)
Min Temperature 19 °F 25 °F -23 °F (1951)
Degree Days  
Heating Degree Days 38 31  
Month to date heating degree days 63  
Since 1 July heating degree days 2842  
Cooling Degree Days 0 0  
Month to date cooling degree days 0  
Year to date cooling degree days 0  
Moisture  
Dew Point 20 °F    
Average Humidity 70    
Maximum Humidity 86    
Minimum Humidity 56    
Precipitation  
Precipitation 0.00 in 0.12 in 1.73 in (1989)
Month to date precipitation 0.24  
Year to date precipitation 3.34  
Snow  
Snow 0.00 in 0.20 in 2.70 in (1961)
Month to date snowfall 0.3  
Since 1 July snowfall 7.2  
Snow Depth -    
Sea Level Pressure  
Sea Level Pressure 30.15 in    
Wind  
Wind Speed 9 mph (SW)    
Max Wind Speed 16 mph    
Max Gust Speed 18 mph    
Visibility 9 miles    
Events      
T = Trace of Precipitation, MM = Missing Value Source: NWS Daily Summary

Daily Weather History Graph

Daily Weather History Graph

Search for Another Location

Airport or City:

Trip Planner

Search our weather history database for the weather conditions in past years. The results will help you decide how hot, cold, wet, or windy it might be!

Date:

Astronomy

Feb. 02, 2013 Rise Set
Actual Time 7:51 AM EST 6:11 PM EST
Civil Twilight 7:23 AM EST 6:39 PM EST
Nautical Twilight 6:52 AM EST 7:11 PM EST
Astronomical Twilight 6:21 AM EST 7:42 PM EST
Moon 12:11 AM EST (2/2) 11:08 AM EST (2/2)
Length of Visible Light 11h 15m
Length of Day
10h 20m
Waning Gibbous, 60% of the Moon is Illuminated
Feb 2
Waning Gibbous
Feb 3
Last Quarter
Feb 10
New
Feb 17
First Quarter
Feb 25
Full

Hourly Weather History & Observations

Time (EST) Temp. Windchill Dew Point Humidity Pressure Visibility Wind Dir Wind Speed Gust Speed Precip Events Conditions
12:15 AM 19.4 °F 10.4 °F 10.4 °F 68% 30.32 in 10.0 mi SSE 6.9 mph - N/A   Clear
12:35 AM 19.4 °F 12.8 °F 10.4 °F 68% 30.31 in 10.0 mi SSE 4.6 mph - N/A   Clear
12:55 AM 21.2 °F 12.6 °F 12.2 °F 68% 30.32 in 10.0 mi South 6.9 mph - N/A   Clear
1:15 AM 21.2 °F 12.6 °F 12.2 °F 68% 30.31 in 10.0 mi South 6.9 mph - N/A   Clear
1:35 AM 21.2 °F 12.6 °F 14.0 °F 74% 30.31 in 10.0 mi South 6.9 mph - N/A   Mostly Cloudy
1:55 AM 21.2 °F 11.7 °F 14.0 °F 74% 30.30 in 10.0 mi South 8.1 mph - N/A   Overcast
2:15 AM 21.2 °F 11.7 °F 15.8 °F 80% 30.30 in 3.0 mi South 8.1 mph - N/A   Overcast
2:35 AM 21.2 °F 10.9 °F 15.8 °F 80% 30.30 in 3.0 mi South 9.2 mph - N/A   Overcast
2:55 AM 21.2 °F 10.9 °F 17.6 °F 86% 30.29 in 3.0 mi SSW 9.2 mph - N/A   Overcast
3:15 AM 21.2 °F 10.9 °F 17.6 °F 86% 30.28 in 3.0 mi South 9.2 mph - N/A   Overcast
4:15 AM 21.2 °F 10.9 °F 17.6 °F 86% 30.25 in 5.0 mi South 9.2 mph - N/A   Scattered Clouds
4:35 AM 21.2 °F 11.7 °F 17.6 °F 86% 30.25 in 3.0 mi South 8.1 mph - N/A   Overcast
4:55 AM 23.0 °F 13.9 °F 19.4 °F 86% 30.24 in 4.0 mi South 8.1 mph - N/A   Overcast
5:15 AM 23.0 °F 15.8 °F 17.6 °F 80% 30.23 in 3.0 mi SSE 5.8 mph - N/A   Overcast
5:35 AM 23.0 °F 14.7 °F 17.6 °F 80% 30.22 in 10.0 mi SSE 6.9 mph - N/A   Overcast
5:55 AM 24.8 °F 16.1 °F 17.6 °F 74% 30.21 in 10.0 mi SSE 8.1 mph - N/A   Mostly Cloudy
6:15 AM 24.8 °F 15.3 °F 17.6 °F 74% 30.23 in 10.0 mi South 9.2 mph - N/A   Overcast
7:15 AM 24.8 °F 15.3 °F 17.6 °F 74% 30.18 in 9.0 mi South 9.2 mph - N/A   Mostly Cloudy
7:55 AM 24.8 °F 13.4 °F 17.6 °F 74% 30.17 in 10.0 mi South 12.7 mph - N/A   Clear
8:15 AM 26.6 °F 17.5 °F 17.6 °F 69% 30.16 in 10.0 mi South 9.2 mph - N/A   Scattered Clouds
8:35 AM 26.6 °F 16.8 °F 17.6 °F 69% 30.15 in 10.0 mi South 10.4 mph - N/A   Mostly Cloudy
8:55 AM 26.6 °F 16.2 °F 17.6 °F 69% 30.15 in 10.0 mi South 11.5 mph - N/A   Overcast
9:15 AM 26.6 °F 16.2 °F 17.6 °F 69% 30.15 in 10.0 mi South 11.5 mph - N/A   Scattered Clouds
9:35 AM 28.4 °F 18.0 °F 17.6 °F 64% 30.15 in 10.0 mi South 12.7 mph - N/A   Clear
9:55 AM 28.4 °F 17.0 °F 17.6 °F 64% 30.14 in 10.0 mi SSW 15.0 mph - N/A   Partly Cloudy
10:15 AM 30.2 °F 19.8 °F 17.6 °F 60% 30.13 in 10.0 mi SSW 13.8 mph - N/A   Clear
10:35 AM 30.2 °F 19.3 °F 17.6 °F 60% 30.13 in 10.0 mi SSW 15.0 mph 18.4 mph N/A   Clear
10:55 AM 30.2 °F 19.8 °F 19.4 °F 64% 30.12 in 10.0 mi SSW 13.8 mph - N/A   Clear
11:15 AM 32.0 °F 21.2 °F 19.4 °F 60% 30.12 in 10.0 mi SSW 16.1 mph - N/A   Partly Cloudy
11:35 AM 32.0 °F 21.2 °F 19.4 °F 60% 30.12 in 10.0 mi SSW 16.1 mph - N/A   Mostly Cloudy
11:55 AM 32.0 °F 24.2 °F 19.4 °F 60% 30.12 in 10.0 mi SW 9.2 mph - N/A   Scattered Clouds
12:15 PM 32.0 °F 23.6 °F 19.4 °F 60% 30.11 in 10.0 mi SW 10.4 mph - N/A   Mostly Cloudy
12:35 PM 32.0 °F 22.5 °F 21.2 °F 64% 30.10 in 5.0 mi WSW 12.7 mph 16.1 mph N/A   Mostly Cloudy
1:15 PM 33.8 °F 27.0 °F 19.4 °F 56% 30.08 in 10.0 mi WSW 8.1 mph - N/A   Mostly Cloudy
1:35 PM 33.8 °F 23.9 °F 19.4 °F 56% 30.07 in 10.0 mi WSW 15.0 mph - N/A   Overcast
1:55 PM 33.8 °F 25.3 °F 21.2 °F 60% 30.06 in 10.0 mi WSW 11.5 mph - N/A   Mostly Cloudy
2:15 PM 33.8 °F 26.4 °F 21.2 °F 60% 30.06 in 10.0 mi West 9.2 mph - N/A   Scattered Clouds
2:35 PM 33.8 °F 26.4 °F 21.2 °F 60% 30.05 in 10.0 mi SW 9.2 mph - N/A   Mostly Cloudy
2:55 PM 33.8 °F 25.3 °F 21.2 °F 60% 30.05 in 10.0 mi WSW 11.5 mph - N/A   Overcast
3:15 PM 33.8 °F 24.8 °F 23.0 °F 65% 30.05 in 10.0 mi West 12.7 mph - N/A   Overcast
3:35 PM 33.8 °F 25.3 °F 24.8 °F 70% 30.06 in 10.0 mi West 11.5 mph - N/A   Overcast
3:55 PM 35.6 °F 28.0 °F 24.8 °F 65% 30.06 in 10.0 mi WNW 10.4 mph - N/A   Overcast
4:15 PM 35.6 °F 28.0 °F 24.8 °F 65% 30.06 in 10.0 mi WNW 10.4 mph - N/A   Overcast
4:35 PM 35.6 °F 28.6 °F 24.8 °F 65% 30.06 in 10.0 mi West 9.2 mph - N/A   Overcast
4:55 PM 35.6 °F 28.6 °F 24.8 °F 65% 30.06 in 10.0 mi West 9.2 mph - N/A   Mostly Cloudy
5:15 PM 35.6 °F 27.1 °F 24.8 °F 65% 30.06 in 10.0 mi West 12.7 mph - N/A   Scattered Clouds
5:35 PM 35.6 °F 28.0 °F 24.8 °F 65% 30.06 in 10.0 mi WNW 10.4 mph - N/A   Clear
6:15 PM 33.8 °F 26.4 °F 24.8 °F 70% 30.07 in 10.0 mi NW 9.2 mph - N/A   Mostly Cloudy
6:35 PM 33.8 °F 27.0 °F 24.8 °F 70% 30.08 in 10.0 mi WNW 8.1 mph - N/A   Overcast
6:55 PM 33.8 °F 29.6 °F 24.8 °F 70% 30.08 in 10.0 mi West 4.6 mph - N/A   Overcast
7:15 PM 33.8 °F 29.6 °F 23.0 °F 65% 30.07 in 10.0 mi West 4.6 mph - N/A   Mostly Cloudy
7:55 PM 32.0 °F 27.5 °F 23.0 °F 69% 30.08 in 10.0 mi SW 4.6 mph - N/A   Mostly Cloudy
8:15 PM 32.0 °F 27.5 °F 23.0 °F 69% 30.09 in 10.0 mi WSW 4.6 mph - N/A   Overcast
8:55 PM 30.2 °F 24.3 °F 23.0 °F 75% 30.09 in 10.0 mi WNW 5.8 mph - N/A   Clear
9:15 PM 30.2 °F 23.4 °F 24.8 °F 80% 30.10 in 10.0 mi WNW 6.9 mph - N/A   Scattered Clouds
9:35 PM 32.0 °F 24.2 °F 24.8 °F 75% 30.09 in 10.0 mi WNW 9.2 mph - N/A   Mostly Cloudy
10:15 PM 30.2 °F 22.6 °F 24.8 °F 80% 30.11 in 10.0 mi NW 8.1 mph - N/A   Mostly Cloudy
10:35 PM 30.2 °F 21.9 °F 24.8 °F 80% 30.10 in 10.0 mi NW 9.2 mph - N/A   Mostly Cloudy
10:55 PM 30.2 °F 23.4 °F 24.8 °F 80% 30.10 in 10.0 mi NW 6.9 mph - N/A   Mostly Cloudy
11:15 PM 30.2 °F 22.6 °F 24.8 °F 80% 30.10 in 10.0 mi WNW 8.1 mph - N/A   Overcast
11:35 PM 30.2 °F 20.8 °F 21.2 °F 69% 30.10 in 10.0 mi WNW 11.5 mph - N/A   Scattered Clouds
11:55 PM 28.4 °F 19.7 °F 21.2 °F 74% 30.10 in 10.0 mi NW 9.2 mph - N/A   Partly Cloudy